| time (UTC) | temp F | wind direction | speed MPH | gust MPH | rain 1hr in | rain 24hr in | rain mn in | humidity % | barometer mb |
| 20260504044604 | 52 | 344 | 6.0 | 11.0 | 0.00 | 0.00 | 0.00 | 76 | 1015.9 |
| 20260504043059 | 52 | 250 | 4.0 | 10.0 | 0.00 | 0.00 | 0.00 | 76 | 1015.5 |
| 20260504041559 | 53 | 289 | 2.0 | 8.0 | 0.00 | 0.00 | 0.00 | 76 | 1015.4 |
| 20260504040103 | 53 | 313 | 3.0 | 11.0 | 0.00 | 0.00 | 0.00 | 75 | 1015.3 |
| 20260504034604 | 53 | 338 | 3.0 | 10.0 | 0.00 | 0.00 | 0.00 | 75 | 1015.3 |
| 20260504033116 | 53 | 269 | 4.0 | 11.0 | 0.00 | 0.00 | 0.00 | 75 | 1015.4 |
| 20260504031556 | 54 | 302 | 5.0 | 11.0 | 0.00 | 0.00 | 0.00 | 74 | 1015.2 |
| 20260504030054 | 54 | 235 | 3.0 | 10.0 | 0.00 | 0.00 | 0.00 | 73 | 1015.1 |
| 20260504024601 | 55 | 311 | 3.0 | 10.0 | 0.00 | 0.00 | 0.00 | 72 | 1015.0 |
| 20260504023057 | 55 | 311 | 6.0 | 10.0 | 0.00 | 0.00 | 0.00 | 71 | 1015.0 |
| 20260504021554 | 56 | 296 | 5.0 | 10.0 | 0.00 | 0.00 | 0.00 | 70 | 1015.1 |
| 20260504020051 | 56 | 279 | 6.0 | 16.0 | 0.00 | 0.00 | 0.00 | 69 | 1014.9 |
| 20260504014552 | 57 | 268 | 6.0 | 14.0 | 0.00 | 0.00 | 0.00 | 68 | 1014.9 |
| 20260504013053 | 58 | 268 | 6.0 | 16.0 | 0.00 | 0.00 | 0.00 | 66 | 1014.6 |
| 20260504011552 | 60 | 290 | 4.0 | 12.0 | 0.00 | 0.00 | 0.00 | 67 | 1014.4 |
| 20260504010058 | 60 | 288 | 5.0 | 13.0 | 0.00 | 0.00 | 0.00 | 66 | 1014.3 |
| 20260504004555 | 61 | 237 | 5.0 | 16.0 | 0.00 | 0.00 | 0.00 | 66 | 1014.1 |
| 20260504003055 | 62 | 267 | 4.0 | 11.0 | 0.00 | 0.00 | 0.00 | 65 | 1014.0 |
| 20260504001610 | 62 | 252 | 5.0 | 10.0 | 0.00 | 0.00 | 0.00 | 63 | 1014.0 |
| 20260504000056 | 62 | 290 | 4.0 | 14.0 | 0.00 | 0.00 | 0.00 | 64 | 1013.9 |
| 20260503234556 | 64 | 314 | 6.0 | 13.0 | 0.00 | 0.00 | 0.00 | 62 | 1013.7 |
| 20260503233049 | 66 | 352 | 3.0 | 11.0 | 0.00 | 0.00 | 0.00 | 58 | 1013.6 |
| 20260503231554 | 67 | 325 | 4.0 | 14.0 | 0.00 | 0.00 | 0.00 | 59 | 1013.8 |
| 20260503230055 | 66 | 250 | 7.0 | 16.0 | 0.00 | 0.00 | 0.00 | 59 | 1013.8 |
| 20260503224552 | 66 | 313 | 6.0 | 15.0 | 0.00 | 0.00 | 0.00 | 59 | 1013.8 |
| 20260503223051 | 66 | 246 | 3.0 | 15.0 | 0.00 | 0.00 | 0.00 | 60 | 1013.7 |
| 20260503221556 | 67 | 335 | 4.0 | 12.0 | 0.00 | 0.00 | 0.00 | 59 | 1013.8 |
| 20260503220111 | 67 | 242 | 7.0 | 16.0 | 0.00 | 0.00 | 0.00 | 58 | 1014.0 |
| 20260503214555 | 69 | 241 | 8.0 | 15.0 | 0.00 | 0.00 | 0.00 | 55 | 1013.9 |
| 20260503213053 | 68 | 312 | 8.0 | 14.0 | 0.00 | 0.00 | 0.00 | 57 | 1014.0 |
| 20260503211605 | 69 | 271 | 7.0 | 15.0 | 0.00 | 0.00 | 0.00 | 56 | 1014.1 |
| 20260503210057 | 68 | 305 | 6.0 | 15.0 | 0.00 | 0.00 | 0.00 | 57 | 1014.0 |
| 20260503204555 | 68 | 302 | 8.0 | 15.0 | 0.00 | 0.00 | 0.00 | 57 | 1014.3 |
| 20260503203057 | 68 | 329 | 4.0 | 14.0 | 0.00 | 0.00 | 0.00 | 58 | 1014.3 |
| 20260503201554 | 68 | 221 | 5.0 | 16.0 | 0.00 | 0.00 | 0.00 | 58 | 1014.5 |
| 20260503200056 | 67 | 242 | 5.0 | 13.0 | 0.00 | 0.00 | 0.00 | 60 | 1014.7 |
| 20260503194559 | 67 | 322 | 5.0 | 15.0 | 0.00 | 0.00 | 0.00 | 61 | 1014.8 |
| 20260503193057 | 67 | 253 | 4.0 | 15.0 | 0.00 | 0.00 | 0.00 | 62 | 1014.9 |
| 20260503191551 | 67 | 212 | 5.0 | 13.0 | 0.00 | 0.00 | 0.00 | 62 | 1014.9 |
| 20260503190054 | 67 | 252 | 4.0 | 9.0 | 0.00 | 0.00 | 0.00 | 63 | 1014.9 |
| 20260503184551 | 66 | 292 | 6.0 | 13.0 | 0.00 | 0.00 | 0.00 | 66 | 1014.9 |
| 20260503183050 | 65 | 251 | 5.0 | 12.0 | 0.00 | 0.00 | 0.00 | 65 | 1015.0 |
| 20260503181620 | 66 | 232 | 4.0 | 12.0 | 0.00 | 0.00 | 0.00 | 65 | 1015.1 |
| 20260503180120 | 65 | 241 | 6.0 | 13.0 | 0.00 | 0.00 | 0.00 | 66 | 1015.1 |
| 20260503174556 | 65 | 217 | 4.0 | 10.0 | 0.00 | 0.00 | 0.00 | 68 | 1015.2 |
| 20260503173056 | 62 | 254 | 2.0 | 7.0 | 0.00 | 0.00 | 0.00 | 75 | 1015.2 |
| 20260503171551 | 59 | 300 | 3.0 | 8.0 | 0.00 | 0.00 | 0.00 | 80 | 1015.2 |
| 20260503150103 | 51 | 0 | 0.0 | 3.0 | 0.00 | 0.00 | 0.00 | 90 | 1015.6 |
| 20260503120105 | 46 | 0 | 0.0 | 1.0 | 0.00 | 0.00 | 0.00 | 87 | 1013.7 |
| 20260503100113 | 50 | 0 | 0.0 | 2.0 | 0.00 | 0.00 | 0.00 | 84 | 1013.5 |
| 20260503081602 | 48 | 139 | 1.0 | 3.0 | 0.00 | 0.00 | 0.00 | 76 | 1014.9 |
| 20260503071559 | 50 | 0 | 0.0 | 0.0 | 0.00 | 0.00 | 0.00 | 64 | 1015.1 |